Preview of NWS' New Version of Forecast
This preview is not operational and should not be used for support decisions.

Regional Weather Roundup (RWR)

Issued by Philadelphia/Mt Holly (PHI)

                            
000
ASUS41 KPHI 231712
RWRPHI

REGIONAL WEATHER ROUNDUP
NATIONAL WEATHER SERVICE MOUNT HOLLY NJ
100 PM EDT SAT MAR 23 2019

NOTE:  "FAIR" INDICATES FEW OR NO CLOUDS BELOW 12,000 FEET WITH NO
SIGNIFICANT WEATHER AND/OR OBSTRUCTIONS TO VISIBILITY.

 * = STATION DOES NOT REPORT PRECIPITATION (E.G. RAIN, SNOW, ETC.) 
        OR FOG.

NJZ015>026-231800-
SOUTHERN NEW JERSEY
  
CITY           SKY/WX    TMP DP  RH WIND       PRES   REMARKS
POMONA         FAIR      47  23  38 W22G35    29.96R                  
WILDWOOD*      FAIR      46  25  43 NW18G28   30.03R                  
MILLVILLE      FAIR      47  21  35 W26G38    30.01R                  
MOUNT HOLLY    FAIR      46  19  34 NW16G25   29.98R                  
TRENTON        FAIR      45  20  36 W21G26    29.96R                  

$$
NJZ001>014-231800-
NORTHERN NEW JERSEY
  
CITY           SKY/WX    TMP DP  RH WIND       PRES   REMARKS
SUSSEX         FAIR      41  22  46 NW10G22   29.93R                  
ANDOVER*         N/A     40  19  43 NW8G18    29.94R WCI  34          
MORRISTOWN     MOSUNNY   43  25  49 W21G29    29.93R                  
NEWARK         FAIR      46  20  35 W24G31    29.91R                  
TETERBORO      FAIR      44  23  43 W15G30    29.89R                  
CALDWELL       FAIR      43  20  39 NW16G28   29.92R                  
SOMERVILLE     FAIR      45  20  36 NW20G29   29.93R                  
ALLAIRE*       FAIR      45  22  40 W28G35    29.90R                  
TOMS RIVER*    FAIR      46  23  40 W25G32    29.93R                  

$$
PAZ043-044-047-054-055-060>062-066>071-231800-
EASTERN PENNSYLVANIA
  
CITY           SKY/WX    TMP DP  RH WIND       PRES   REMARKS
PHILADELPHIA   FAIR      46  16  30 W18G29    30.01R                  
NORTH PHILA    FAIR      47  17  30 NW21G30   30.00R                  
BLUE BELL*     FAIR      43  19  39 W16       30.01R                  
DOYLESTOWN     FAIR      45  17  32 NW23G30   29.97R                  
QUAKERTOWN*    SUNNY     43  16  33 W17G24    29.99R                  
PERKASIE*      FAIR      41  14  33 NW21G29   29.99R                  
POTTSTOWN      FAIR      43  19  38 W15G26    30.02R                  
LANCASTER      FAIR      46  17  31 NW20G30   30.05R                  
COATESVILLE    FAIR      43  18  36 NW26G36   30.03S                  
READING        FAIR     N/A N/A N/A NW20G30   30.02R                  
ALLENTOWN      FAIR      45  14  28 NW16G31   29.98R                  
MOUNT POCONO   FAIR      29  17  61 W26G37    29.89R WCI  14          
HAZLETON       FAIR      37  10  32 NW15G24   29.97R WCI  28          
LEHIGHTON      FAIR      43  10  26 W9G23     30.00R                  
WILKES BARRE   FAIR      38  16  40 N15G28    29.99R WCI  29          

$$
DEZALL-MDZ008-012-015-019-020-231800-
DELAWARE AND EASTERN MARYLAND
  
CITY           SKY/WX    TMP DP  RH WIND       PRES   REMARKS
WILMINGTON     FAIR      48  16  27 NW25G35   30.04R                  
GEORGETOWN     FAIR      49  22  34 W14G31    30.05S                  
EASTON         SUNNY     48  21  34 W14G25    30.13S                  
PATUXENT       FAIR      49  20  31 NW22G30   30.12S                  
OCEAN CITY     FAIR      47  26  44 NW18G30   30.05R                  
WALLOPS ISLAND FAIR      49  21  33 W24G32    30.09R                  
CAMBRIDGE      SUNNY     46  23  39 W15G26    30.11S                  
SALISBURY      FAIR      46  25  43 W22G29    30.07S                  

$$
PAZ001-021-NYZ056-072-MDZ011-DCZ001-231800-
OTHER NEARBY LOCATIONS
  
CITY           SKY/WX    TMP DP  RH WIND       PRES   REMARKS
HARRISBURG     FAIR      47  14  26 NW18      30.07R                  
STATE COLLEGE  SUNNY     39  12  33 W17G23    30.10R WCI  30          
WILLIAMSPORT   FAIR      43   8  23 W17G26    30.05R                  
BINGHAMTON     FAIR      27  15  61 NW17G30   29.97R WCI  14          
NEW YORK CITY  FAIR      43  21  41 W15G33    29.90R                  
BALTIMORE      FAIR      47  17  30 W24G31    30.10R                  
WASHINGTON DC  FAIR      48  19  31 NW14G26   30.16R                  

$$